Skip Page Navigation
NASA JPL Caltech
NASA Logo - Jet Propulsion Laboratory + View the NASA Portal
+ Center for Near-Earth Object Studies
JPL Home Earth Solar System Stars & Galaxies Technology
JPL Solar System Dynamics
BODIES ORBITS EPHEMERIDES TOOLS PHYSICAL DATA DISCOVERY FAQ SITE MAP
JPL Small-Body Database Browser
Search: [ help ]  
186825 (2004 FD37)
Classification: Main-belt Asteroid          SPK-ID: 2186825
Ephemeris | Orbit Diagram | Orbital Elements | Mission Design | Physical Parameters | Discovery Circumstances ]

[ show orbit diagram ]
Orbital Elements at Epoch 2459200.5 (2020-Dec-17.0) TDB
Reference: JPL 14 (heliocentric ecliptic J2000)
 Element Value Uncertainty (1-sigma)   Units 
e .1549029442743546 4.2637e-08  
a 2.425377299559115 1.4926e-08 au
q 2.049679214881225 9.7055e-08 au
i 2.689490212162057 5.3278e-06 deg
node 23.27855607323847 0.00011218 deg
peri 220.01900420 0.00011471 deg
M 106.6030297012026 2.5658e-05 deg
tp 2458791.960139308647
(2019-Nov-04.46013931)
9.7144e-05 TDB
period 1379.645121354631
3.78
1.2736e-05
3.487e-08
d
yr
n .2609366672833425 2.4088e-09 deg/d
Q 2.801075384237005 1.7239e-08 au
  Orbit Determination Parameters
   # obs. used (total)      278  
   data-arc span      9042 days (24.76 yr)  
   first obs. used      1996-01-18  
   last obs. used      2020-10-20  
   planetary ephem.      DE441  
   SB-pert. ephem.      SB441-N16  
   condition code      0  
   norm. resid. RMS      .62002  
   source      ORB  
   producer      Otto Matic  
   solution date      2021-Apr-13 21:52:51  

Additional Information
 Earth MOID = 1.03619 au 
 Jupiter MOID = 2.21614 au 
 T_jup = 3.493 
[ show covariance matrix ]

Ephemeris | Orbit Diagram | Orbital Elements | Mission Design | Physical Parameters | Discovery Circumstances ]

Physical Parameter Table
Parameter Symbol Value Units Sigma Reference Notes
absolute magnitude H 17.2   n/a MPO470015  

186825 (2004 FD37)          Discovered 2004-Mar-16 by CINEOS at Campo Imperatore
Reference: 20080520/Numbers.arcLast Updated: 2008-05-22
Ephemeris | Orbit Diagram | Orbital Elements | Mission Design | Physical Parameters | Discovery Circumstances ]
ABOUT SSD CREDITS/AWARDS PRIVACY/COPYRIGHT GLOSSARY LINKS
FirstGov 2021-Jun-22 06:10 UT
(server date/time)  
NASA Home Page
Site Manager:   Ryan S. Park
Webmaster  Alan B. Chamberlin